IRIDIUM 106 1 41917U 17003A 26150.93243272 .00000010 00000+0 -35432-5 0 9992 2 41917 86.3956 95.7692 0001913 76.8656 283.2753 14.34217609490731 IRIDIUM 103 1 41918U 17003B 26151.19882317 .00000011 00000+0 -29622-5 0 9996 2 41918 86.3955 95.5575 0002405 82.5415 277.6054 14.34217490490798 IRIDIUM 109 1 41919U 17003C 26151.20516536 .00000033 00000+0 46116-5 0 9996 2 41919 86.3957 95.6138 0002356 85.2944 274.8521 14.34217580490764 IRIDIUM 102 1 41920U 17003D 26150.89437690 .00000186 00000+0 59188-4 0 9996 2 41920 86.3956 95.6676 0002248 86.4272 273.7181 14.34217873490809 IRIDIUM 105 1 41921U 17003E 26151.20185334 .00000367 00000+0 12396-3 0 9998 2 41921 86.3974 63.9705 0002443 88.4417 271.7059 14.34222084492704 IRIDIUM 104 1 41922U 17003F 26150.90706345 .00000014 00000+0 -22283-5 0 9994 2 41922 86.3956 95.7048 0002571 87.1124 273.0366 14.34217306490795 IRIDIUM 114 1 41923U 17003G 26150.91340593 -.00000017 00000+0 -13034-4 0 9992 2 41923 86.3956 95.6856 0002343 84.9866 275.1597 14.34216860490778 IRIDIUM 108 1 41924U 17003H 26151.15100100 .00000048 00000+0 10126-4 0 9999 2 41924 86.3968 63.8828 0002153 86.0071 274.1371 14.34217804492666 IRIDIUM 112 1 41925U 17003J 26150.90072053 .00000125 00000+0 37462-4 0 9995 2 41925 86.3953 95.5334 0002366 86.2634 273.8832 14.34217848490796 IRIDIUM 111 1 41926U 17003K 26150.88803536 .00000080 00000+0 21401-4 0 9997 2 41926 86.3956 95.6090 0002290 83.7165 276.4291 14.34218016490771 IRIDIUM 113 1 42803U 17039A 26151.00753733 .00000079 00000+0 21181-4 0 9992 2 42803 86.3961 329.3629 0002342 90.9870 269.1594 14.34218349468722 IRIDIUM 123 1 42804U 17039B 26150.97924454 .00000345 00000+0 11609-3 0 9997 2 42804 86.3978 0.8318 0002186 83.2204 276.9240 14.34217942467483 IRIDIUM 120 1 42805U 17039C 26150.93143117 .00000079 00000+0 21195-4 0 9999 2 42805 86.3950 329.1794 0002017 89.5331 270.6096 14.34219531468704 IRIDIUM 115 1 42806U 17039D 26150.92452509 .00000128 00000+0 32184-4 0 9992 2 42806 86.4488 329.3089 0002132 85.1449 274.9995 14.43278702471772 IRIDIUM 118 1 42807U 17039E 26151.08072845 .00000039 00000+0 68514-5 0 9990 2 42807 86.3977 0.7877 0002213 87.0042 273.1407 14.34217788467490 IRIDIUM 117 1 42808U 17039F 26151.09975620 .00000016 00000+0 -14806-5 0 9996 2 42808 86.3976 0.7373 0002123 84.2568 275.8870 14.34217591467522 IRIDIUM 126 1 42809U 17039G 26150.98558971 .00000072 00000+0 18712-4 0 9990 2 42809 86.3978 0.8362 0002291 85.9848 274.1610 14.34217730467483 IRIDIUM 124 1 42810U 17039H 26150.92767146 .00000391 00000+0 11038-3 0 9999 2 42810 86.4464 297.5778 0002232 91.5271 268.6186 14.43277954472622 IRIDIUM 128 1 42811U 17039J 26151.18563289 .00000035 00000+0 53806-5 0 9997 2 42811 86.3983 32.2578 0001998 82.1304 278.0119 14.34217729467541 IRIDIUM 121 1 42812U 17039K 26151.07438566 .00000178 00000+0 56664-4 0 9997 2 42812 86.3978 0.8261 0002100 87.7347 272.4089 14.34219054467378 IRIDIUM 133 1 42955U 17061A 26151.14756522 .00000302 00000+0 10059-3 0 9999 2 42955 86.3985 32.3910 0002170 84.0701 276.0742 14.34222030452330 IRIDIUM 100 1 42956U 17061B 26151.14123491 .00000069 00000+0 17743-4 0 9991 2 42956 86.3984 32.3125 0002195 85.0862 275.0584 14.34217557452335 IRIDIUM 122 1 42957U 17061C 26151.17929036 .00000103 00000+0 29895-4 0 9994 2 42957 86.3983 32.2970 0002224 83.2895 276.8554 14.34218242452340 IRIDIUM 129 1 42958U 17061D 26151.20465738 .00000105 00000+0 30304-4 0 9992 2 42958 86.3985 32.3530 0002374 90.2465 269.9003 14.34216489452368 IRIDIUM 119 1 42959U 17061E 26151.10317678 .00000204 00000+0 65620-4 0 9990 2 42959 86.3986 32.3914 0002302 84.7146 275.4313 14.34219493452365 IRIDIUM 107 1 42960U 17061F 26151.19197571 -.00000002 00000+0 -78008-5 0 9992 2 42960 86.3982 32.3751 0002086 77.4497 282.6932 14.34217414452389 IRIDIUM 132 1 42961U 17061G 26151.19831801 .00000086 00000+0 23753-4 0 9990 2 42961 86.3984 32.3523 0002274 85.4754 274.6702 14.34216862452385 IRIDIUM 136 1 42962U 17061H 26151.09049457 .00000055 00000+0 12748-4 0 9996 2 42962 86.3985 32.4040 0002255 84.2049 275.9403 14.34217459452380 IRIDIUM 139 1 42963U 17061J 26151.09683587 .00000186 00000+0 59325-4 0 9992 2 42963 86.3987 32.4630 0002103 82.7020 277.4415 14.34218606452398 IRIDIUM 125 1 42964U 17061K 26151.15392071 .00000105 00000+0 30318-4 0 9997 2 42964 86.3986 32.4998 0002627 78.6965 281.4526 14.34218241452414 IRIDIUM 135 1 43070U 17083A 26150.91874148 .00000088 00000+0 24431-4 0 9992 2 43070 86.3956 329.2379 0002170 89.9735 270.1710 14.34218003441675 IRIDIUM 138 1 43071U 17083B 26150.94411059 .00000093 00000+0 26108-4 0 9993 2 43071 86.3969 328.9201 0002448 90.1308 270.0169 14.34218635441665 IRIDIUM 116 1 43072U 17083C 26150.98216507 .00000032 00000+0 44358-5 0 9990 2 43072 86.3954 329.1975 0001849 87.5484 272.5923 14.34217990441703 IRIDIUM 130 1 43073U 17083D 26150.95045404 .00000070 00000+0 18011-4 0 9992 2 43073 86.3963 329.4842 0002051 85.5120 274.6310 14.34217036441648 IRIDIUM 151 1 43074U 17083E 26150.92508242 .00000037 00000+0 60783-5 0 9991 2 43074 86.3957 329.2788 0002106 90.4408 269.7030 14.34217573441666 IRIDIUM 134 1 43075U 17083F 26150.96313963 .00000108 00000+0 31355-4 0 9991 2 43075 86.3958 329.2705 0002132 88.1322 272.0118 14.34217428441635 IRIDIUM 137 1 43076U 17083G 26150.97582186 .00000089 00000+0 24603-4 0 9994 2 43076 86.3959 329.3578 0001803 98.5911 261.5489 14.34217837441705 IRIDIUM 141 1 43077U 17083H 26150.96948098 -.00000002 00000+0 -76936-5 0 9996 2 43077 86.3954 329.1921 0002121 90.2476 269.8962 14.34217540441708 IRIDIUM 153 1 43078U 17083J 26150.92166051 .00000030 00000+0 36949-5 0 9993 2 43078 86.3944 297.6919 0002378 91.3177 268.8291 14.34217589442807 IRIDIUM 131 1 43079U 17083K 26150.95679681 .00000042 00000+0 78291-5 0 9994 2 43079 86.3961 329.3822 0002185 91.0160 269.1286 14.34217649441633 IRIDIUM 144 1 43249U 18030A 26150.92800176 .00000091 00000+0 25530-4 0 9999 2 43249 86.3943 297.6187 0002050 91.8808 268.2623 14.34218041427660 IRIDIUM 149 1 43250U 18030B 26150.93434475 .00000016 00000+0 -14922-5 0 9999 2 43250 86.3940 297.5836 0002124 93.6471 266.4968 14.34217621427684 IRIDIUM 157 1 43251U 18030C 26150.95337257 .00000011 00000+0 -30323-5 0 9990 2 43251 86.3944 297.6282 0002161 92.1622 267.9821 14.34217670427664 IRIDIUM 140 1 43252U 18030D 26150.90263191 -.00000001 00000+0 -74851-5 0 9995 2 43252 86.3943 297.6623 0002034 91.5259 268.6170 14.34217449427716 IRIDIUM 145 1 43253U 18030E 26150.95971442 .00000008 00000+0 -43744-5 0 9999 2 43253 86.3941 297.6105 0001763 92.3969 267.7429 14.34217641427659 IRIDIUM 146 1 43254U 18030F 26150.94068707 .00000028 00000+0 29478-5 0 9999 2 43254 86.3944 297.6307 0002025 92.0050 268.1378 14.34217768427666 IRIDIUM 148 1 43255U 18030G 26150.90897374 .00000166 00000+0 52275-4 0 9999 2 43255 86.3944 297.6868 0002106 95.9166 264.2270 14.34218397427699 IRIDIUM 142 1 43256U 18030H 26150.94702944 .00000340 00000+0 11435-3 0 9998 2 43256 86.3935 297.5598 0002038 89.7926 270.3504 14.34216622427662 IRIDIUM 150 1 43257U 18030J 26150.91531696 .00000009 00000+0 -37054-5 0 9990 2 43257 86.3942 297.6897 0002038 91.5144 268.6285 14.34217548427683 IRIDIUM 143 1 43258U 18030K 26150.89628872 .00000048 00000+0 99639-5 0 9990 2 43258 86.3949 297.7894 0002043 91.3805 268.7625 14.34217832427615 IRIDIUM 161 1 43478U 18047C 26150.97494731 .00000377 00000+0 10604-3 0 9994 2 43478 86.4477 95.6673 0002446 90.3385 269.8096 14.43279434422654 IRIDIUM 152 1 43479U 18047D 26150.86900794 .00000004 00000+0 -57825-5 0 9990 2 43479 86.3951 95.5728 0002268 86.1387 274.0068 14.34217486420001 IRIDIUM 147 1 43480U 18047E 26150.94511572 .00000176 00000+0 55892-4 0 9993 2 43480 86.3951 95.5453 0002276 86.0775 274.0681 14.34217263420012 IRIDIUM 110 1 43481U 18047F 26150.88169355 .00000004 00000+0 -54874-5 0 9996 2 43481 86.3955 95.6636 0002419 90.6947 269.4526 14.34217526419995 IRIDIUM 162 1 43482U 18047G 26150.89930486 .00000369 00000+0 10381-3 0 9995 2 43482 86.4476 95.5901 0002417 83.5342 276.6134 14.43283774422635 IRIDIUM 160 1 43569U 18061A 26151.17637103 .00000271 00000+0 89715-4 0 9999 2 43569 86.3974 63.9084 0002247 88.0217 272.1236 14.34217746410936 IRIDIUM 166 1 43570U 18061B 26151.20174154 .00000043 00000+0 82608-5 0 9999 2 43570 86.3971 63.8488 0002088 83.3424 276.8010 14.34217741410962 IRIDIUM 158 1 43571U 18061C 26151.17002433 .00000183 00000+0 58339-4 0 9994 2 43571 86.3970 63.8720 0002304 83.0567 277.0891 14.34216953410927 IRIDIUM 165 1 43572U 18061D 26151.19539838 .00000021 00000+0 51824-6 0 9996 2 43572 86.3967 63.9076 0001991 83.9571 276.1851 14.34217648410955 IRIDIUM 155 1 43573U 18061E 26151.15734344 .00000173 00000+0 54640-4 0 9997 2 43573 86.3969 63.7932 0002261 81.1694 278.9758 14.34217832410911 IRIDIUM 154 1 43574U 18061F 26151.20808220 .00000099 00000+0 28346-4 0 9990 2 43574 86.3972 63.9047 0002061 84.9180 275.2251 14.34216845410971 IRIDIUM 163 1 43575U 18061G 26151.18905664 .00000036 00000+0 58515-5 0 9991 2 43575 86.3969 63.8286 0002339 84.8971 275.2492 14.34217765410943 IRIDIUM 156 1 43576U 18061H 26151.16368582 .00000040 00000+0 70871-5 0 9996 2 43576 86.3968 63.8464 0002063 79.2623 280.8805 14.34217723410930 IRIDIUM 164 1 43577U 18061J 26151.14465730 -.00000035 00000+0 -19517-4 0 9993 2 43577 86.3968 63.8944 0001915 86.3744 273.7671 14.34218924410972 IRIDIUM 159 1 43578U 18061K 26151.18271363 -.00000016 00000+0 -12617-4 0 9998 2 43578 86.3964 63.8159 0002186 86.6588 273.4858 14.34217409410945 IRIDIUM 180 1 43922U 19002A 26151.04267295 -.00000004 00000+0 -83752-5 0 9997 2 43922 86.3975 0.7656 0002110 89.2636 270.8802 14.34217418386539 IRIDIUM 176 1 43923U 19002B 26150.55535142 .00000934 00000+0 14426-3 0 9992 2 43923 86.6097 0.9158 0002230 88.6433 271.5040 14.72260462396653 IRIDIUM 168 1 43924U 19002C 26151.03633014 .00000028 00000+0 29471-5 0 9996 2 43924 86.3981 0.8454 0002142 88.0139 272.1302 14.34217797386513 IRIDIUM 173 1 43925U 19002D 26151.09341352 .00000006 00000+0 -49916-5 0 9997 2 43925 86.3974 0.7109 0002136 85.6863 274.4577 14.34217612386506 IRIDIUM 169 1 43926U 19002E 26151.14152319 .00000218 00000+0 64827-4 0 9998 2 43926 86.4239 32.3189 0002469 72.4954 287.6514 14.38607894387771 IRIDIUM 172 1 43927U 19002F 26151.08707090 .00000092 00000+0 25634-4 0 9997 2 43927 86.3977 0.7217 0002234 88.9044 271.2408 14.34217625386510 IRIDIUM 175 1 43928U 19002G 26150.87775007 .00000386 00000+0 10815-3 0 9997 2 43928 86.4497 297.7589 0001075 298.2457 61.8635 14.43602071396480 IRIDIUM 171 1 43929U 19002H 26151.06804286 .00000117 00000+0 34849-4 0 9998 2 43929 86.3985 1.0337 0002054 84.4906 275.6524 14.34217843386504 IRIDIUM 170 1 43930U 19002J 26150.62950049 .00000542 00000+0 82123-4 0 9990 2 43930 86.6097 0.8875 0002399 91.4066 268.7426 14.72252156396675 IRIDIUM 167 1 43931U 19002K 26151.13146844 -.00000011 00000+0 -11055-4 0 9997 2 43931 86.3974 0.7250 0001839 79.9018 280.2385 14.34217398386511 IRIDIUM 181 1 56726U 23068S 26151.19008263 .00000441 00000+0 12513-3 0 9992 2 56726 86.4507 63.8944 0002219 90.6088 269.5367 14.43312087159980 IRIDIUM 177 1 56727U 23068T 26151.08412374 .00000485 00000+0 60256-4 0 9999 2 56727 86.1956 336.9170 0002478 87.5168 272.6336 14.80226095163836 IRIDIUM 174 1 56728U 23068U 26151.09291147 .00000951 00000+0 14692-3 0 9994 2 56728 86.6104 0.8391 0002629 86.8303 273.3215 14.72249425163501 IRIDIUM 178 1 56729U 23068V 26150.66766234 .00000776 00000+0 98685-4 0 9991 2 56729 86.6551 32.6813 0002449 89.2927 270.8576 14.80231995163772 IRIDIUM 179 1 56730U 23068W 26151.20311029 .00001393 00000+0 17995-3 0 9992 2 56730 86.6792 41.3864 0002377 84.7975 275.3518 14.80231699163853